Time,TemperatureF,DewpointF,PressureIn,WindDirection,WindDirectionDegrees,WindSpeedMPH,WindSpeedGustMPH,Humidity,HourlyPrecipIn,Conditions,Clouds,dailyrainin,SoftwareType,DateUTC
2013-04-07 00:00:00,31.3,23.6,30.32,SE,139,0.0,15.0,73,0.00,,,0.00,Wunderground v.1.15,2013-04-07 04:00:00,
2013-04-07 00:05:00,31.5,23.8,30.32,SE,143,0.0,15.0,73,0.00,,,0.00,Wunderground v.1.15,2013-04-07 04:05:00,
2013-04-07 00:10:00,31.7,24.7,30.32,West,264,0.0,15.0,75,0.00,,,0.00,Wunderground v.1.15,2013-04-07 04:10:00,
2013-04-07 00:15:00,31.7,24.7,30.32,West,264,0.0,15.0,75,0.00,,,0.00,Wunderground v.1.15,2013-04-07 04:15:00,
2013-04-07 00:20:00,31.6,25.2,30.32,West,264,0.0,15.0,77,0.00,,,0.00,Wunderground v.1.15,2013-04-07 04:20:00,
2013-04-07 00:30:00,31.5,25.4,30.32,South,170,0.0,15.0,78,0.00,,,0.00,Wunderground v.1.15,2013-04-07 04:30:00,
2013-04-07 00:40:00,31.0,24.6,30.32,South,169,0.0,15.0,77,0.00,,,0.00,Wunderground v.1.15,2013-04-07 04:40:00,
2013-04-07 00:45:00,30.8,24.7,30.32,SE,133,1.0,15.0,78,0.00,,,0.00,Wunderground v.1.15,2013-04-07 04:45:00,
2013-04-07 00:55:00,30.2,23.9,30.31,SE,133,0.0,15.0,77,0.00,,,0.00,Wunderground v.1.15,2013-04-07 04:55:00,
2013-04-07 01:05:00,29.7,23.7,30.31,SW,214,0.0,15.0,78,0.00,,,0.00,Wunderground v.1.15,2013-04-07 05:05:00,
2013-04-07 01:15:00,29.4,23.7,30.31,SW,215,0.0,15.0,79,0.00,,,0.00,Wunderground v.1.15,2013-04-07 05:15:00,
2013-04-07 01:25:00,29.3,23.6,30.31,SE,127,0.0,15.0,79,0.00,,,0.00,Wunderground v.1.15,2013-04-07 05:25:00,
2013-04-07 01:35:00,29.2,23.8,30.31,SE,128,0.0,15.0,80,0.00,,,0.00,Wunderground v.1.15,2013-04-07 05:35:00,
2013-04-07 01:45:00,29.1,24.0,30.31,SE,128,0.0,15.0,81,0.00,,,0.00,Wunderground v.1.15,2013-04-07 05:45:00,
2013-04-07 01:55:00,29.0,24.5,30.30,SE,129,0.0,15.0,83,0.00,,,0.00,Wunderground v.1.15,2013-04-07 05:55:00,
2013-04-07 02:05:00,29.0,24.8,30.29,SE,129,0.0,15.0,84,0.00,,,0.00,Wunderground v.1.15,2013-04-07 06:05:00,
2013-04-07 02:15:00,28.9,24.7,30.29,SE,128,0.0,15.0,84,0.00,,,0.00,Wunderground v.1.15,2013-04-07 06:15:00,
2013-04-07 02:25:00,28.8,24.9,30.29,SE,129,0.0,15.0,85,0.00,,,0.00,Wunderground v.1.15,2013-04-07 06:25:00,
2013-04-07 02:35:00,28.8,25.1,30.29,SE,129,0.0,15.0,86,0.00,,,0.00,Wunderground v.1.15,2013-04-07 06:35:00,
2013-04-07 02:40:00,28.8,24.9,30.29,SE,128,0.0,15.0,85,0.00,,,0.00,Wunderground v.1.15,2013-04-07 06:40:00,
2013-04-07 02:50:00,28.7,24.8,30.29,SE,129,0.0,15.0,85,0.00,,,0.00,Wunderground v.1.15,2013-04-07 06:50:00,
2013-04-07 02:55:00,28.7,25.0,30.29,SE,128,0.0,15.0,86,0.00,,,0.00,Wunderground v.1.15,2013-04-07 06:55:00,
2013-04-07 03:05:00,28.8,24.9,30.29,SE,129,0.0,15.0,85,0.00,,,0.00,Wunderground v.1.15,2013-04-07 07:05:00,
2013-04-07 03:15:00,28.4,24.7,30.28,SE,129,0.0,15.0,86,0.00,,,0.00,Wunderground v.1.15,2013-04-07 07:15:00,
2013-04-07 03:25:00,28.2,24.6,30.28,SE,128,0.0,15.0,86,0.00,,,0.00,Wunderground v.1.15,2013-04-07 07:25:00,
2013-04-07 03:35:00,28.2,24.8,30.28,SE,128,0.0,15.0,87,0.00,,,0.00,Wunderground v.1.15,2013-04-07 07:35:00,
2013-04-07 03:45:00,28.0,24.4,30.28,SE,128,0.0,15.0,86,0.00,,,0.00,Wunderground v.1.15,2013-04-07 07:45:00,
2013-04-07 03:55:00,27.9,24.8,30.28,SE,128,0.0,15.0,88,0.00,,,0.00,Wunderground v.1.15,2013-04-07 07:55:00,
2013-04-07 04:00:00,27.9,24.8,30.28,SE,128,0.0,15.0,88,0.00,,,0.00,Wunderground v.1.15,2013-04-07 08:00:00,
2013-04-07 04:10:00,27.8,25.0,30.28,SE,129,0.0,15.0,89,0.00,,,0.00,Wunderground v.1.15,2013-04-07 08:10:00,
2013-04-07 04:20:00,27.8,25.0,30.28,SE,128,0.0,15.0,89,0.00,,,0.00,Wunderground v.1.15,2013-04-07 08:20:00,
2013-04-07 04:30:00,28.0,25.2,30.28,SE,129,0.0,15.0,89,0.00,,,0.00,Wunderground v.1.15,2013-04-07 08:30:00,
2013-04-07 04:40:00,27.9,24.8,30.29,SE,128,0.0,15.0,88,0.00,,,0.00,Wunderground v.1.15,2013-04-07 08:40:00,
2013-04-07 04:45:00,27.7,24.6,30.29,SE,128,0.0,15.0,88,0.00,,,0.00,Wunderground v.1.15,2013-04-07 08:45:00,
2013-04-07 04:55:00,27.7,24.9,30.29,SE,129,0.0,15.0,89,0.00,,,0.00,Wunderground v.1.15,2013-04-07 08:55:00,
2013-04-07 05:00:00,27.5,24.7,30.29,SE,129,0.0,15.0,89,0.00,,,0.00,Wunderground v.1.15,2013-04-07 09:00:00,
2013-04-07 05:10:00,27.8,25.2,30.30,SE,129,0.0,15.0,90,0.00,,,0.00,Wunderground v.1.15,2013-04-07 09:10:00,
2013-04-07 05:15:00,27.9,25.6,30.29,SE,129,0.0,15.0,91,0.00,,,0.00,Wunderground v.1.15,2013-04-07 09:15:00,
2013-04-07 05:20:00,28.6,26.8,30.29,SE,129,0.0,15.0,93,0.00,,,0.00,Wunderground v.1.15,2013-04-07 09:20:00,
2013-04-07 05:30:00,28.2,25.9,30.29,SE,129,0.0,15.0,91,0.00,,,0.00,Wunderground v.1.15,2013-04-07 09:30:00,
2013-04-07 05:40:00,28.0,25.7,30.30,SE,129,0.0,15.0,91,0.00,,,0.00,Wunderground v.1.15,2013-04-07 09:40:00,
2013-04-07 05:50:00,28.1,26.1,30.30,SE,129,0.0,15.0,92,0.00,,,0.00,Wunderground v.1.15,2013-04-07 09:50:00,
2013-04-07 05:55:00,28.0,25.7,30.30,SE,143,0.0,15.0,91,0.00,,,0.00,Wunderground v.1.15,2013-04-07 09:55:00,
2013-04-07 06:05:00,28.8,27.0,30.30,SE,136,0.0,15.0,93,0.00,,,0.00,Wunderground v.1.15,2013-04-07 10:05:00,
2013-04-07 06:15:00,28.8,27.0,30.31,SE,141,0.0,15.0,93,0.00,,,0.00,Wunderground v.1.15,2013-04-07 10:15:00,
2013-04-07 06:25:00,28.6,26.6,30.31,SE,141,0.0,15.0,92,0.00,,,0.00,Wunderground v.1.15,2013-04-07 10:25:00,
2013-04-07 06:35:00,28.8,27.0,30.31,SE,141,0.0,15.0,93,0.00,,,0.00,Wunderground v.1.15,2013-04-07 10:35:00,
2013-04-07 06:45:00,28.9,27.1,30.31,SE,141,0.0,15.0,93,0.00,,,0.00,Wunderground v.1.15,2013-04-07 10:45:00,
2013-04-07 06:55:00,29.2,27.2,30.31,SE,141,0.0,15.0,92,0.00,,,0.00,Wunderground v.1.15,2013-04-07 10:55:00,
2013-04-07 07:00:00,29.4,27.6,30.32,SE,141,0.0,15.0,93,0.00,,,0.00,Wunderground v.1.15,2013-04-07 11:00:00,
2013-04-07 07:05:00,29.8,28.0,30.32,SE,141,0.0,15.0,93,0.00,,,0.00,Wunderground v.1.15,2013-04-07 11:05:00,
2013-04-07 07:15:00,30.3,28.3,30.32,SE,141,0.0,15.0,92,0.00,,,0.00,Wunderground v.1.15,2013-04-07 11:15:00,
2013-04-07 07:25:00,30.9,29.1,30.32,SE,141,0.0,15.0,93,0.00,,,0.00,Wunderground v.1.15,2013-04-07 11:25:00,
2013-04-07 07:35:00,31.8,30.0,30.33,SE,139,0.0,15.0,93,0.00,,,0.00,Wunderground v.1.15,2013-04-07 11:35:00,
2013-04-07 07:45:00,32.9,30.8,30.33,SE,139,0.0,15.0,92,0.00,,,0.00,Wunderground v.1.15,2013-04-07 11:45:00,
2013-04-07 07:55:00,34.0,31.6,30.33,SE,139,0.0,15.0,91,0.00,,,0.00,Wunderground v.1.15,2013-04-07 11:55:00,
2013-04-07 08:05:00,35.0,32.4,30.33,SE,139,0.0,15.0,90,0.00,,,0.00,Wunderground v.1.15,2013-04-07 12:05:00,
2013-04-07 08:15:00,36.1,32.9,30.32,SE,127,1.0,15.0,88,0.00,,,0.00,Wunderground v.1.15,2013-04-07 12:15:00,
2013-04-07 08:20:00,36.8,33.3,30.32,ESE,110,1.0,15.0,87,0.00,,,0.00,Wunderground v.1.15,2013-04-07 12:20:00,
2013-04-07 08:25:00,37.4,33.9,30.32,ESE,115,1.0,15.0,87,0.00,,,0.00,Wunderground v.1.15,2013-04-07 12:25:00,
2013-04-07 08:35:00,38.9,34.5,30.31,ESE,107,1.0,15.0,84,0.00,,,0.00,Wunderground v.1.15,2013-04-07 12:35:00,
2013-04-07 08:45:00,40.7,35.6,30.31,ESE,123,1.0,15.0,82,0.00,,,0.00,Wunderground v.1.15,2013-04-07 12:45:00,
2013-04-07 08:55:00,42.0,35.3,30.31,South,177,2.0,15.0,77,0.00,,,0.00,Wunderground v.1.15,2013-04-07 12:55:00,
2013-04-07 09:05:00,42.7,35.0,30.30,SSE,160,3.0,15.0,74,0.00,,,0.00,Wunderground v.1.15,2013-04-07 13:05:00,
2013-04-07 09:10:00,43.2,34.8,30.30,SSE,165,3.0,15.0,72,0.00,,,0.00,Wunderground v.1.15,2013-04-07 13:10:00,
2013-04-07 09:20:00,43.2,34.4,30.30,ESE,122,3.0,15.0,71,0.00,,,0.00,Wunderground v.1.15,2013-04-07 13:20:00,
2013-04-07 09:30:00,43.7,34.2,30.30,SSW,210,4.0,15.0,69,0.00,,,0.00,Wunderground v.1.15,2013-04-07 13:30:00,
2013-04-07 09:40:00,44.5,34.2,30.29,SW,219,3.0,3.0,67,0.00,,,0.00,Wunderground v.1.15,2013-04-07 13:40:00,
2013-04-07 09:50:00,45.3,33.0,30.29,SE,141,4.0,4.0,62,0.00,,,0.00,Wunderground v.1.15,2013-04-07 13:50:00,
2013-04-07 10:00:00,46.4,32.8,30.29,SE,143,4.0,15.0,59,0.00,,,0.00,Wunderground v.1.15,2013-04-07 14:00:00,
2013-04-07 10:10:00,46.3,31.4,30.29,ESE,112,5.0,15.0,56,0.00,,,0.00,Wunderground v.1.15,2013-04-07 14:10:00,
2013-04-07 10:15:00,46.4,31.5,30.29,SE,125,4.0,15.0,56,0.00,,,0.00,Wunderground v.1.15,2013-04-07 14:15:00,
2013-04-07 10:25:00,46.6,30.4,30.28,SSW,212,3.0,6.0,53,0.00,,,0.00,Wunderground v.1.15,2013-04-07 14:25:00,
2013-04-07 10:30:00,46.4,30.6,30.28,ESE,108,4.0,15.0,54,0.00,,,0.00,Wunderground v.1.15,2013-04-07 14:30:00,
2013-04-07 10:40:00,46.6,30.8,30.27,ESE,117,4.0,4.0,54,0.00,,,0.00,Wunderground v.1.15,2013-04-07 14:40:00,
2013-04-07 10:50:00,47.0,31.2,30.27,ESE,123,5.0,15.0,54,0.00,,,0.00,Wunderground v.1.15,2013-04-07 14:50:00,
2013-04-07 10:55:00,46.9,31.6,30.27,ESE,111,5.0,15.0,55,0.00,,,0.00,Wunderground v.1.15,2013-04-07 14:55:00,
2013-04-07 11:00:00,46.9,32.0,30.26,ESE,115,5.0,15.0,56,0.00,,,0.00,Wunderground v.1.15,2013-04-07 15:00:00,
2013-04-07 11:10:00,46.8,32.8,30.26,SSW,212,5.0,15.0,58,0.00,,,0.00,Wunderground v.1.15,2013-04-07 15:10:00,
2013-04-07 11:15:00,47.1,32.6,30.26,South,181,5.0,15.0,57,0.00,,,0.00,Wunderground v.1.15,2013-04-07 15:15:00,
2013-04-07 11:30:00,48.4,33.4,30.25,South,187,5.0,15.0,56,0.00,,,0.00,Wunderground v.1.15,2013-04-07 15:30:00,
2013-04-07 11:35:00,48.8,32.9,30.25,SSE,166,4.0,15.0,54,0.00,,,0.00,Wunderground v.1.15,2013-04-07 15:35:00,
2013-04-07 11:45:00,48.9,33.0,30.24,SSE,166,4.0,5.0,54,0.00,,,0.00,Wunderground v.1.15,2013-04-07 15:45:00,
2013-04-07 11:55:00,49.9,33.4,30.24,SSE,156,5.0,15.0,53,0.00,,,0.00,Wunderground v.1.15,2013-04-07 15:55:00,
2013-04-07 12:05:00,50.1,34.1,30.23,SSE,163,6.0,15.0,54,0.00,,,0.00,Wunderground v.1.15,2013-04-07 16:05:00,
2013-04-07 12:15:00,50.5,33.5,30.24,South,187,5.0,12.0,52,0.00,,,0.00,Wunderground v.1.15,2013-04-07 16:15:00,
2013-04-07 12:25:00,49.9,33.9,30.23,SSE,149,6.0,15.0,54,0.00,,,0.00,Wunderground v.1.15,2013-04-07 16:25:00,
2013-04-07 12:30:00,49.3,33.8,30.22,SSE,158,6.0,15.0,55,0.00,,,0.00,Wunderground v.1.15,2013-04-07 16:30:00,
2013-04-07 12:40:00,49.4,33.9,30.21,SE,128,8.0,8.0,55,0.00,,,0.00,Wunderground v.1.15,2013-04-07 16:40:00,
2013-04-07 12:50:00,50.3,34.7,30.21,ESE,105,6.0,6.0,55,0.00,,,0.00,Wunderground v.1.15,2013-04-07 16:50:00,
2013-04-07 13:00:00,50.2,35.5,30.20,East,94,7.0,7.0,57,0.00,,,0.00,Wunderground v.1.15,2013-04-07 17:00:00,
2013-04-07 13:05:00,50.3,35.2,30.19,SSE,152,7.0,15.0,56,0.00,,,0.00,Wunderground v.1.15,2013-04-07 17:05:00,
2013-04-07 13:10:00,50.0,34.9,30.19,SSE,160,7.0,7.0,56,0.00,,,0.00,Wunderground v.1.15,2013-04-07 17:10:00,
2013-04-07 13:20:00,50.6,35.0,30.19,SSE,162,5.0,15.0,55,0.00,,,0.00,Wunderground v.1.15,2013-04-07 17:20:00,
2013-04-07 13:25:00,50.8,35.7,30.19,SSE,162,5.0,15.0,56,0.00,,,0.00,Wunderground v.1.15,2013-04-07 17:25:00,
2013-04-07 13:35:00,51.0,35.8,30.18,ESE,105,6.0,11.0,56,0.00,,,0.00,Wunderground v.1.15,2013-04-07 17:35:00,
2013-04-07 13:45:00,50.6,35.9,30.18,East,91,7.0,15.0,57,0.00,,,0.00,Wunderground v.1.15,2013-04-07 17:45:00,
2013-04-07 13:55:00,51.0,36.3,30.17,SE,131,5.0,15.0,57,0.00,,,0.00,Wunderground v.1.15,2013-04-07 17:55:00,
2013-04-07 14:05:00,51.3,36.6,30.17,SSW,197,4.0,15.0,57,0.00,,,0.00,Wunderground v.1.15,2013-04-07 18:05:00,
2013-04-07 14:15:00,51.2,36.9,30.17,East,98,5.0,5.0,58,0.00,,,0.00,Wunderground v.1.15,2013-04-07 18:15:00,
2013-04-07 14:25:00,51.0,37.2,30.16,East,100,5.0,15.0,59,0.00,,,0.00,Wunderground v.1.15,2013-04-07 18:25:00,
2013-04-07 14:30:00,50.7,37.3,30.16,ESE,115,6.0,6.0,60,0.00,,,0.00,Wunderground v.1.15,2013-04-07 18:30:00,
2013-04-07 14:40:00,51.1,36.8,30.15,South,172,5.0,15.0,58,0.00,,,0.00,Wunderground v.1.15,2013-04-07 18:40:00,
2013-04-07 14:50:00,50.6,37.2,30.15,SSE,164,6.0,6.0,60,0.00,,,0.00,Wunderground v.1.15,2013-04-07 18:50:00,
2013-04-07 15:05:00,51.3,37.9,30.14,SSE,160,5.0,15.0,60,0.00,,,0.00,Wunderground v.1.15,2013-04-07 19:05:00,
2013-04-07 15:10:00,51.1,37.7,30.14,SSE,164,5.0,15.0,60,0.00,,,0.00,Wunderground v.1.15,2013-04-07 19:10:00,
2013-04-07 15:20:00,50.9,37.9,30.13,ESE,122,6.0,15.0,61,0.00,,,0.00,Wunderground v.1.15,2013-04-07 19:20:00,
2013-04-07 15:25:00,50.7,37.7,30.12,SE,134,5.0,15.0,61,0.00,,,0.00,Wunderground v.1.15,2013-04-07 19:25:00,
2013-04-07 15:35:00,50.7,38.1,30.12,SE,138,5.0,7.0,62,0.00,,,0.00,Wunderground v.1.15,2013-04-07 19:35:00,
2013-04-07 15:40:00,50.7,38.1,30.12,SSW,193,5.0,5.0,62,0.00,,,0.00,Wunderground v.1.15,2013-04-07 19:40:00,
2013-04-07 15:50:00,50.1,38.4,30.11,ESE,122,6.0,6.0,64,0.00,,,0.00,Wunderground v.1.15,2013-04-07 19:50:00,
2013-04-07 16:00:00,50.2,38.5,30.11,East,95,6.0,6.0,64,0.00,,,0.00,Wunderground v.1.15,2013-04-07 20:00:00,
2013-04-07 16:05:00,50.3,38.6,30.11,South,173,6.0,15.0,64,0.00,,,0.00,Wunderground v.1.15,2013-04-07 20:05:00,
2013-04-07 16:15:00,50.0,38.7,30.11,SE,135,6.0,15.0,65,0.00,,,0.00,Wunderground v.1.15,2013-04-07 20:15:00,
2013-04-07 16:20:00,49.8,38.5,30.11,ESE,120,6.0,6.0,65,0.00,,,0.00,Wunderground v.1.15,2013-04-07 20:20:00,
2013-04-07 16:30:00,50.1,38.8,30.10,SSE,153,5.0,15.0,65,0.00,,,0.00,Wunderground v.1.15,2013-04-07 20:30:00,
2013-04-07 16:40:00,50.1,38.8,30.09,South,179,6.0,6.0,65,0.00,,,0.00,Wunderground v.1.15,2013-04-07 20:40:00,
2013-04-07 16:50:00,50.3,39.0,30.09,SSE,160,4.0,15.0,65,0.00,,,0.00,Wunderground v.1.15,2013-04-07 20:50:00,
2013-04-07 16:55:00,49.9,39.0,30.09,SSE,164,5.0,15.0,66,0.00,,,0.00,Wunderground v.1.15,2013-04-07 20:55:00,
2013-04-07 17:05:00,49.8,39.7,30.08,ESE,115,6.0,15.0,68,0.00,,,0.00,Wunderground v.1.15,2013-04-07 21:05:00,
2013-04-07 17:15:00,49.1,39.0,30.07,SE,131,6.0,15.0,68,0.00,,,0.00,Wunderground v.1.15,2013-04-07 21:15:00,
2013-04-07 17:25:00,49.3,39.9,30.06,ESE,108,5.0,15.0,70,0.00,,,0.00,Wunderground v.1.15,2013-04-07 21:25:00,
2013-04-07 17:35:00,49.2,39.8,30.07,SE,125,6.0,11.0,70,0.00,,,0.00,Wunderground v.1.15,2013-04-07 21:35:00,
2013-04-07 17:45:00,49.2,40.2,30.08,SE,126,5.0,8.0,71,0.00,,,0.00,Wunderground v.1.15,2013-04-07 21:45:00,
2013-04-07 18:00:00,48.3,39.7,30.08,SSW,201,4.0,15.0,72,0.00,,,0.00,Wunderground v.1.15,2013-04-07 22:00:00,
2013-04-07 18:10:00,48.1,39.9,30.07,SE,128,5.0,15.0,73,0.00,,,0.00,Wunderground v.1.15,2013-04-07 22:10:00,
2013-04-07 18:15:00,48.0,39.8,30.07,SSE,158,5.0,15.0,73,0.00,,,0.00,Wunderground v.1.15,2013-04-07 22:15:00,
2013-04-07 18:25:00,47.8,39.6,30.06,SSE,158,3.0,15.0,73,0.00,,,0.00,Wunderground v.1.15,2013-04-07 22:25:00,
2013-04-07 18:35:00,47.7,39.8,30.07,SE,134,3.0,4.0,74,0.00,,,0.00,Wunderground v.1.15,2013-04-07 22:35:00,
2013-04-07 18:45:00,47.6,39.7,30.07,SSW,212,3.0,15.0,74,0.00,,,0.00,Wunderground v.1.15,2013-04-07 22:45:00,
2013-04-07 18:55:00,47.3,39.4,30.07,SSE,148,3.0,15.0,74,0.00,,,0.00,Wunderground v.1.15,2013-04-07 22:55:00,
2013-04-07 19:05:00,47.1,39.6,30.06,SE,134,4.0,4.0,75,0.00,,,0.00,Wunderground v.1.15,2013-04-07 23:05:00,
2013-04-07 19:10:00,47.0,39.5,30.06,SE,134,4.0,4.0,75,0.00,,,0.00,Wunderground v.1.15,2013-04-07 23:10:00,
2013-04-07 19:20:00,47.0,39.8,30.07,East,84,2.0,15.0,76,0.00,,,0.00,Wunderground v.1.15,2013-04-07 23:20:00,
2013-04-07 19:30:00,46.8,39.6,30.06,SE,134,3.0,15.0,76,0.00,,,0.00,Wunderground v.1.15,2013-04-07 23:30:00,
2013-04-07 19:40:00,46.7,39.5,30.06,SSE,150,3.0,15.0,76,0.00,,,0.00,Wunderground v.1.15,2013-04-07 23:40:00,
2013-04-07 19:45:00,46.7,39.9,30.07,SE,130,3.0,15.0,77,0.00,,,0.00,Wunderground v.1.15,2013-04-07 23:45:00,
2013-04-07 19:50:00,46.6,39.8,30.06,ESE,120,3.0,15.0,77,0.00,,,0.00,Wunderground v.1.15,2013-04-07 23:50:00,
2013-04-07 20:00:00,46.6,39.4,30.06,WNW,292,3.0,3.0,76,0.00,,,0.00,Wunderground v.1.15,2013-04-08 00:00:00,
2013-04-07 20:10:00,46.5,39.7,30.07,South,187,2.0,15.0,77,0.00,,,0.00,Wunderground v.1.15,2013-04-08 00:10:00,
2013-04-07 20:20:00,46.4,39.9,30.07,SSW,201,3.0,3.0,78,0.00,,,0.00,Wunderground v.1.15,2013-04-08 00:20:00,
2013-04-07 20:30:00,46.4,39.9,30.07,SE,136,2.0,15.0,78,0.00,,,0.00,Wunderground v.1.15,2013-04-08 00:30:00,
2013-04-07 20:40:00,46.4,40.2,30.07,SE,134,2.0,15.0,79,0.00,,,0.00,Wunderground v.1.15,2013-04-08 00:40:00,
2013-04-07 20:45:00,46.4,40.2,30.07,SE,143,2.0,15.0,79,0.00,,,0.00,Wunderground v.1.15,2013-04-08 00:45:00,
2013-04-07 20:55:00,46.5,40.7,30.07,South,190,3.0,15.0,80,0.00,,,0.00,Wunderground v.1.15,2013-04-08 00:55:00,
2013-04-07 21:00:00,46.6,40.8,30.07,SSE,158,3.0,3.0,80,0.00,,,0.00,Wunderground v.1.15,2013-04-08 01:00:00,
2013-04-07 21:10:00,46.5,40.7,30.07,ESE,111,2.0,15.0,80,0.00,,,0.00,Wunderground v.1.15,2013-04-08 01:10:00,
2013-04-07 21:20:00,46.5,41.0,30.06,SE,143,3.0,3.0,81,0.00,,,0.00,Wunderground v.1.15,2013-04-08 01:20:00,
2013-04-07 21:30:00,46.5,41.3,30.06,SE,139,3.0,3.0,82,0.00,,,0.00,Wunderground v.1.15,2013-04-08 01:30:00,
2013-04-07 21:40:00,46.4,41.5,30.05,SSE,160,3.0,3.0,83,0.00,,,0.00,Wunderground v.1.15,2013-04-08 01:40:00,
2013-04-07 21:45:00,46.4,41.5,30.06,ESE,110,3.0,4.0,83,0.00,,,0.00,Wunderground v.1.15,2013-04-08 01:45:00,
2013-04-07 21:55:00,46.4,41.8,30.05,SW,219,3.0,15.0,84,0.00,,,0.00,Wunderground v.1.15,2013-04-08 01:55:00,
2013-04-07 22:05:00,46.5,41.9,30.05,SSE,163,2.0,15.0,84,0.00,,,0.00,Wunderground v.1.15,2013-04-08 02:05:00,
2013-04-07 22:10:00,46.6,42.0,30.05,SE,134,3.0,3.0,84,0.00,,,0.00,Wunderground v.1.15,2013-04-08 02:10:00,
2013-04-07 22:15:00,46.7,42.4,30.05,ESE,121,2.0,15.0,85,0.00,,,0.00,Wunderground v.1.15,2013-04-08 02:15:00,
2013-04-07 22:25:00,46.7,42.4,30.05,SE,128,2.0,15.0,85,0.00,,,0.00,Wunderground v.1.15,2013-04-08 02:25:00,
2013-04-07 22:35:00,46.6,42.6,30.05,SSE,156,1.0,15.0,86,0.00,,,0.00,Wunderground v.1.15,2013-04-08 02:35:00,
2013-04-07 22:45:00,46.6,42.6,30.04,SE,129,2.0,4.0,86,0.00,,,0.00,Wunderground v.1.15,2013-04-08 02:45:00,
2013-04-07 22:50:00,46.6,42.6,30.05,ESE,111,2.0,15.0,86,0.00,,,0.00,Wunderground v.1.15,2013-04-08 02:50:00,
2013-04-07 23:00:00,46.5,42.8,30.04,SSW,210,2.0,15.0,87,0.00,,,0.00,Wunderground v.1.15,2013-04-08 03:00:00,
2013-04-07 23:10:00,46.5,43.1,30.04,ESE,121,2.0,15.0,88,0.00,,,0.00,Wunderground v.1.15,2013-04-08 03:10:00,
2013-04-07 23:20:00,46.4,43.0,30.04,ESE,120,1.0,15.0,88,0.00,,,0.00,Wunderground v.1.15,2013-04-08 03:20:00,
2013-04-07 23:25:00,46.3,42.9,30.04,East,101,1.0,15.0,88,0.00,,,0.00,Wunderground v.1.15,2013-04-08 03:25:00,
2013-04-07 23:35:00,46.3,42.9,30.04,SSE,162,2.0,15.0,88,0.00,,,0.00,Wunderground v.1.15,2013-04-08 03:35:00,
2013-04-07 23:40:00,46.2,43.1,30.04,SSW,210,2.0,2.0,89,0.00,,,0.00,Wunderground v.1.15,2013-04-08 03:40:00,
2013-04-07 23:50:00,46.1,43.0,30.04,SSE,167,2.0,2.0,89,0.00,,,0.00,Wunderground v.1.15,2013-04-08 03:50:00,
2013-04-07 23:55:00,46.1,43.0,30.04,SSW,207,2.0,15.0,89,0.00,,,0.00,Wunderground v.1.15,2013-04-08 03:55:00,